User: anonymous   Login
Location: Unspecified
(0.0000°N, 0.0000°E)
Time: 16:40:14
(UTC+02:00)
Language:

GPS 2-05 Rocket1 - Orbit

View from above orbital plane
View from above orbital plane
View from above satellite
View from above satellite

Ground track
Ground track

The orbit data is extracted from the following two-line orbital elements,

1 20362U 89097B   15109.96809654  .00018498  00000-0  49783-3 0  9993
2 20362 035.6124 276.6187 0090383 316.8207 183.9719 15.32888078377806
Epoch (UTC): 19 April 2015 23:14:03
Eccentricity: 0.0090383
inclination: 35.6124°
perigee height: 405 km
apogee height: 529 km
right ascension of ascending node: 276.6187°
argument of perigee: 316.8207°
revolutions per day: 15.32888078
mean anomaly at epoch: 183.9719°
orbit number at epoch: 37780

The dashed part of the orbit path shows where the satellite is in the earth's shadow,  

DLR